Time,TemperatureF,DewpointF,PressureIn,WindDirection,WindDirectionDegrees,WindSpeedMPH,WindSpeedGustMPH,Humidity,HourlyPrecipIn,Conditions,Clouds,dailyrainin,SoftwareType,DateUTC
2013-01-15 00:02:00,28.9,17.6,30.30,North,-999,-999.0,-999.0,62,-99.99,,,-99.99,meteohub,2013-01-15 08:02:00,
2013-01-15 00:07:00,29.1,17.4,30.30,North,-999,-999.0,-999.0,61,-99.99,,,-99.99,meteohub,2013-01-15 08:07:00,
2013-01-15 00:12:00,28.9,17.2,30.30,North,-999,-999.0,-999.0,61,-99.99,,,-99.99,meteohub,2013-01-15 08:12:00,
2013-01-15 00:17:00,29.1,17.1,30.33,North,-999,-999.0,-999.0,60,-99.99,,,-99.99,meteohub,2013-01-15 08:17:00,
2013-01-15 00:22:00,29.1,17.1,30.33,North,-999,-999.0,-999.0,60,-99.99,,,-99.99,meteohub,2013-01-15 08:22:00,
2013-01-15 00:27:00,29.3,17.2,30.33,North,-999,-999.0,-999.0,60,-99.99,,,-99.99,meteohub,2013-01-15 08:27:00,
2013-01-15 00:32:00,29.1,17.1,30.33,North,-999,-999.0,-999.0,60,-99.99,,,-99.99,meteohub,2013-01-15 08:32:00,
2013-01-15 00:37:00,29.1,16.5,30.33,North,-999,-999.0,-999.0,59,-99.99,,,-99.99,meteohub,2013-01-15 08:37:00,
2013-01-15 00:42:00,29.1,16.5,30.33,North,-999,-999.0,-999.0,59,-99.99,,,-99.99,meteohub,2013-01-15 08:42:00,
2013-01-15 00:47:00,28.9,16.5,30.33,North,-999,-999.0,-999.0,59,-99.99,,,-99.99,meteohub,2013-01-15 08:47:00,
2013-01-15 00:52:00,28.9,16.9,30.33,North,-999,-999.0,-999.0,60,-99.99,,,-99.99,meteohub,2013-01-15 08:52:00,
2013-01-15 00:57:00,29.1,16.5,30.33,North,-999,-999.0,-999.0,59,-99.99,,,-99.99,meteohub,2013-01-15 08:57:00,
2013-01-15 01:02:00,29.5,16.9,30.36,North,-999,-999.0,-999.0,59,-99.99,,,-99.99,meteohub,2013-01-15 09:02:00,
2013-01-15 01:07:00,29.7,17.1,30.36,North,-999,-999.0,-999.0,59,-99.99,,,-99.99,meteohub,2013-01-15 09:07:00,
2013-01-15 01:19:00,30.0,16.7,30.36,North,-999,-999.0,-999.0,57,-99.99,,,-99.99,meteohub,2013-01-15 09:19:00,
2013-01-15 01:24:00,29.8,16.5,30.36,North,-999,-999.0,-999.0,57,-99.99,,,-99.99,meteohub,2013-01-15 09:24:00,
2013-01-15 01:35:00,29.5,16.2,30.36,North,-999,-999.0,-999.0,57,-99.99,,,-99.99,meteohub,2013-01-15 09:35:00,
2013-01-15 01:40:00,29.5,16.5,30.36,North,-999,-999.0,-999.0,58,-99.99,,,-99.99,meteohub,2013-01-15 09:40:00,
2013-01-15 01:45:00,29.5,16.5,30.36,North,-999,-999.0,-999.0,58,-99.99,,,-99.99,meteohub,2013-01-15 09:45:00,
2013-01-15 01:50:00,29.8,16.9,30.36,North,-999,-999.0,-999.0,58,-99.99,,,-99.99,meteohub,2013-01-15 09:50:00,
2013-01-15 01:55:00,29.7,16.3,30.36,North,-999,-999.0,-999.0,57,-99.99,,,-99.99,meteohub,2013-01-15 09:55:00,
2013-01-15 02:01:00,29.7,16.0,30.36,North,-999,-999.0,-999.0,56,-99.99,,,-99.99,meteohub,2013-01-15 10:01:00,
2013-01-15 02:06:00,29.7,16.0,30.36,North,-999,-999.0,-999.0,56,-99.99,,,-99.99,meteohub,2013-01-15 10:06:00,
2013-01-15 02:11:00,29.5,15.8,30.36,North,-999,-999.0,-999.0,56,-99.99,,,-99.99,meteohub,2013-01-15 10:11:00,
2013-01-15 02:16:00,29.3,15.6,30.36,North,-999,-999.0,-999.0,56,-99.99,,,-99.99,meteohub,2013-01-15 10:16:00,
2013-01-15 02:21:00,28.8,15.1,30.36,North,-999,-999.0,-999.0,56,-99.99,,,-99.99,meteohub,2013-01-15 10:21:00,
2013-01-15 02:26:00,28.4,14.7,30.36,North,-999,-999.0,-999.0,56,-99.99,,,-99.99,meteohub,2013-01-15 10:26:00,
2013-01-15 02:32:00,28.2,14.5,30.36,North,-999,-999.0,-999.0,56,-99.99,,,-99.99,meteohub,2013-01-15 10:32:00,
2013-01-15 02:37:00,27.9,14.2,30.36,North,-999,-999.0,-999.0,56,-99.99,,,-99.99,meteohub,2013-01-15 10:37:00,
2013-01-15 02:42:00,27.9,14.2,30.36,North,-999,-999.0,-999.0,56,-99.99,,,-99.99,meteohub,2013-01-15 10:42:00,
2013-01-15 02:47:00,27.7,14.0,30.36,North,-999,-999.0,-999.0,56,-99.99,,,-99.99,meteohub,2013-01-15 10:47:00,
2013-01-15 02:52:00,27.5,13.8,30.36,North,-999,-999.0,-999.0,56,-99.99,,,-99.99,meteohub,2013-01-15 10:52:00,
2013-01-15 03:05:00,27.0,13.8,30.36,North,-999,-999.0,-999.0,57,-99.99,,,-99.99,meteohub,2013-01-15 11:05:00,
2013-01-15 03:10:00,26.8,13.6,30.36,North,-999,-999.0,-999.0,57,-99.99,,,-99.99,meteohub,2013-01-15 11:10:00,
2013-01-15 03:26:00,26.1,13.6,30.36,North,-999,-999.0,-999.0,59,-99.99,,,-99.99,meteohub,2013-01-15 11:26:00,
2013-01-15 03:31:00,25.9,14.0,30.36,North,-999,-999.0,-999.0,60,-99.99,,,-99.99,meteohub,2013-01-15 11:31:00,
2013-01-15 03:36:00,25.7,14.2,30.36,North,-999,-999.0,-999.0,61,-99.99,,,-99.99,meteohub,2013-01-15 11:36:00,
2013-01-15 03:42:00,25.7,14.2,30.36,North,-999,-999.0,-999.0,61,-99.99,,,-99.99,meteohub,2013-01-15 11:42:00,
2013-01-15 03:47:00,25.5,14.0,30.36,North,-999,-999.0,-999.0,61,-99.99,,,-99.99,meteohub,2013-01-15 11:47:00,
2013-01-15 03:52:00,25.5,14.0,30.36,North,-999,-999.0,-999.0,61,-99.99,,,-99.99,meteohub,2013-01-15 11:52:00,
2013-01-15 03:57:00,25.3,13.8,30.36,North,-999,-999.0,-999.0,61,-99.99,,,-99.99,meteohub,2013-01-15 11:57:00,
2013-01-15 04:04:00,25.3,14.2,30.36,North,-999,-999.0,-999.0,62,-99.99,,,-99.99,meteohub,2013-01-15 12:04:00,
2013-01-15 04:09:00,25.3,14.2,30.36,North,-999,-999.0,-999.0,62,-99.99,,,-99.99,meteohub,2013-01-15 12:09:00,
2013-01-15 04:14:00,25.2,14.4,30.36,North,-999,-999.0,-999.0,63,-99.99,,,-99.99,meteohub,2013-01-15 12:14:00,
2013-01-15 04:20:00,25.0,14.2,30.36,North,-999,-999.0,-999.0,63,-99.99,,,-99.99,meteohub,2013-01-15 12:20:00,
2013-01-15 04:25:00,24.8,14.0,30.36,North,-999,-999.0,-999.0,63,-99.99,,,-99.99,meteohub,2013-01-15 12:25:00,
2013-01-15 04:30:00,24.6,14.2,30.36,North,-999,-999.0,-999.0,64,-99.99,,,-99.99,meteohub,2013-01-15 12:30:00,
2013-01-15 04:35:00,24.4,14.0,30.36,North,-999,-999.0,-999.0,64,-99.99,,,-99.99,meteohub,2013-01-15 12:35:00,
2013-01-15 04:40:00,24.3,13.8,30.36,North,-999,-999.0,-999.0,64,-99.99,,,-99.99,meteohub,2013-01-15 12:40:00,
2013-01-15 04:45:00,24.1,14.0,30.36,North,-999,-999.0,-999.0,65,-99.99,,,-99.99,meteohub,2013-01-15 12:45:00,
2013-01-15 04:51:00,23.9,13.8,30.36,North,-999,-999.0,-999.0,65,-99.99,,,-99.99,meteohub,2013-01-15 12:51:00,
2013-01-15 04:56:00,23.9,14.2,30.36,North,-999,-999.0,-999.0,66,-99.99,,,-99.99,meteohub,2013-01-15 12:56:00,
2013-01-15 05:01:00,23.9,14.2,30.36,North,-999,-999.0,-999.0,66,-99.99,,,-99.99,meteohub,2013-01-15 13:01:00,
2013-01-15 05:06:00,23.9,14.2,30.36,North,-999,-999.0,-999.0,66,-99.99,,,-99.99,meteohub,2013-01-15 13:06:00,
2013-01-15 05:11:00,23.9,14.2,30.36,North,-999,-999.0,-999.0,66,-99.99,,,-99.99,meteohub,2013-01-15 13:11:00,
2013-01-15 05:17:00,23.7,14.0,30.36,North,-999,-999.0,-999.0,66,-99.99,,,-99.99,meteohub,2013-01-15 13:17:00,
2013-01-15 05:22:00,23.5,13.8,30.36,North,-999,-999.0,-999.0,66,-99.99,,,-99.99,meteohub,2013-01-15 13:22:00,
2013-01-15 05:35:00,23.5,13.8,30.36,North,-999,-999.0,-999.0,66,-99.99,,,-99.99,meteohub,2013-01-15 13:35:00,
2013-01-15 05:40:00,23.4,13.3,30.36,North,-999,-999.0,-999.0,65,-99.99,,,-99.99,meteohub,2013-01-15 13:40:00,
2013-01-15 05:45:00,23.4,13.3,30.36,North,-999,-999.0,-999.0,65,-99.99,,,-99.99,meteohub,2013-01-15 13:45:00,
2013-01-15 05:51:00,23.2,13.1,30.36,North,-999,-999.0,-999.0,65,-99.99,,,-99.99,meteohub,2013-01-15 13:51:00,
2013-01-15 05:56:00,23.0,13.3,30.36,North,-999,-999.0,-999.0,66,-99.99,,,-99.99,meteohub,2013-01-15 13:56:00,
2013-01-15 06:01:00,22.8,13.1,30.39,North,-999,-999.0,-999.0,66,-99.99,,,-99.99,meteohub,2013-01-15 14:01:00,
2013-01-15 06:06:00,22.8,13.1,30.39,North,-999,-999.0,-999.0,66,-99.99,,,-99.99,meteohub,2013-01-15 14:06:00,
2013-01-15 06:11:00,22.8,13.1,30.39,North,-999,-999.0,-999.0,66,-99.99,,,-99.99,meteohub,2013-01-15 14:11:00,
2013-01-15 06:17:00,22.8,13.5,30.39,North,-999,-999.0,-999.0,67,-99.99,,,-99.99,meteohub,2013-01-15 14:17:00,
2013-01-15 06:22:00,22.8,13.5,30.39,North,-999,-999.0,-999.0,67,-99.99,,,-99.99,meteohub,2013-01-15 14:22:00,
2013-01-15 06:27:00,22.6,13.3,30.39,North,-999,-999.0,-999.0,67,-99.99,,,-99.99,meteohub,2013-01-15 14:27:00,
2013-01-15 06:32:00,22.6,13.3,30.39,North,-999,-999.0,-999.0,67,-99.99,,,-99.99,meteohub,2013-01-15 14:32:00,
2013-01-15 06:37:00,22.6,13.3,30.39,North,-999,-999.0,-999.0,67,-99.99,,,-99.99,meteohub,2013-01-15 14:37:00,
2013-01-15 06:42:00,22.6,13.3,30.39,North,-999,-999.0,-999.0,67,-99.99,,,-99.99,meteohub,2013-01-15 14:42:00,
2013-01-15 06:47:00,22.5,13.1,30.39,North,-999,-999.0,-999.0,67,-99.99,,,-99.99,meteohub,2013-01-15 14:47:00,
2013-01-15 06:52:00,22.3,13.1,30.39,North,-999,-999.0,-999.0,67,-99.99,,,-99.99,meteohub,2013-01-15 14:52:00,
2013-01-15 06:57:00,22.1,13.1,30.39,North,-999,-999.0,-999.0,68,-99.99,,,-99.99,meteohub,2013-01-15 14:57:00,
2013-01-15 07:02:00,21.9,12.9,30.39,North,-999,-999.0,-999.0,68,-99.99,,,-99.99,meteohub,2013-01-15 15:02:00,
2013-01-15 07:07:00,21.9,13.3,30.39,North,-999,-999.0,-999.0,69,-99.99,,,-99.99,meteohub,2013-01-15 15:07:00,
2013-01-15 07:12:00,21.7,13.1,30.39,North,-999,-999.0,-999.0,69,-99.99,,,-99.99,meteohub,2013-01-15 15:12:00,
2013-01-15 07:17:00,21.7,13.1,30.39,North,-999,-999.0,-999.0,69,-99.99,,,-99.99,meteohub,2013-01-15 15:17:00,
2013-01-15 07:22:00,21.9,13.3,30.39,North,-999,-999.0,-999.0,69,-99.99,,,-99.99,meteohub,2013-01-15 15:22:00,
2013-01-15 07:27:00,22.1,13.1,30.39,North,-999,-999.0,-999.0,68,-99.99,,,-99.99,meteohub,2013-01-15 15:27:00,
2013-01-15 07:32:00,22.5,13.5,30.39,North,-999,-999.0,-999.0,68,-99.99,,,-99.99,meteohub,2013-01-15 15:32:00,
2013-01-15 07:37:00,22.6,13.3,30.39,North,-999,-999.0,-999.0,67,-99.99,,,-99.99,meteohub,2013-01-15 15:37:00,
2013-01-15 07:42:00,22.6,13.3,30.39,North,-999,-999.0,-999.0,67,-99.99,,,-99.99,meteohub,2013-01-15 15:42:00,
2013-01-15 07:48:00,22.8,13.1,30.39,North,-999,-999.0,-999.0,66,-99.99,,,-99.99,meteohub,2013-01-15 15:48:00,
2013-01-15 07:53:00,22.8,13.1,30.39,North,-999,-999.0,-999.0,66,-99.99,,,-99.99,meteohub,2013-01-15 15:53:00,
2013-01-15 07:58:00,22.8,12.9,30.39,North,-999,-999.0,-999.0,65,-99.99,,,-99.99,meteohub,2013-01-15 15:58:00,
2013-01-15 08:03:00,23.0,13.1,30.39,North,-999,-999.0,-999.0,65,-99.99,,,-99.99,meteohub,2013-01-15 16:03:00,
2013-01-15 08:08:00,22.8,12.9,30.39,North,-999,-999.0,-999.0,65,-99.99,,,-99.99,meteohub,2013-01-15 16:08:00,
2013-01-15 08:14:00,22.8,12.9,30.39,North,-999,-999.0,-999.0,65,-99.99,,,-99.99,meteohub,2013-01-15 16:14:00,
2013-01-15 08:20:00,22.5,13.1,30.42,North,-999,-999.0,-999.0,67,-99.99,,,-99.99,meteohub,2013-01-15 16:20:00,
2013-01-15 08:25:00,22.3,13.3,30.42,North,-999,-999.0,-999.0,68,-99.99,,,-99.99,meteohub,2013-01-15 16:25:00,
2013-01-15 08:30:00,22.1,13.5,30.42,North,-999,-999.0,-999.0,69,-99.99,,,-99.99,meteohub,2013-01-15 16:30:00,
2013-01-15 08:35:00,22.1,13.5,30.42,North,-999,-999.0,-999.0,69,-99.99,,,-99.99,meteohub,2013-01-15 16:35:00,
2013-01-15 08:40:00,21.9,13.3,30.42,North,-999,-999.0,-999.0,69,-99.99,,,-99.99,meteohub,2013-01-15 16:40:00,
2013-01-15 08:46:00,21.9,13.3,30.42,North,-999,-999.0,-999.0,69,-99.99,,,-99.99,meteohub,2013-01-15 16:46:00,
2013-01-15 08:51:00,21.9,13.3,30.42,North,-999,-999.0,-999.0,69,-99.99,,,-99.99,meteohub,2013-01-15 16:51:00,
2013-01-15 08:56:00,21.9,14.0,30.42,North,-999,-999.0,-999.0,71,-99.99,,,-99.99,meteohub,2013-01-15 16:56:00,
2013-01-15 09:01:00,22.1,14.5,30.42,North,-999,-999.0,-999.0,72,-99.99,,,-99.99,meteohub,2013-01-15 17:01:00,
2013-01-15 09:06:00,22.3,14.7,30.42,North,-999,-999.0,-999.0,72,-99.99,,,-99.99,meteohub,2013-01-15 17:06:00,
2013-01-15 09:11:00,22.3,14.7,30.42,North,-999,-999.0,-999.0,72,-99.99,,,-99.99,meteohub,2013-01-15 17:11:00,
2013-01-15 09:17:00,22.5,14.9,30.45,North,-999,-999.0,-999.0,72,-99.99,,,-99.99,meteohub,2013-01-15 17:17:00,
2013-01-15 09:22:00,22.8,15.1,30.45,North,-999,-999.0,-999.0,72,-99.99,,,-99.99,meteohub,2013-01-15 17:22:00,
2013-01-15 09:27:00,23.4,15.4,30.45,North,-999,-999.0,-999.0,71,-99.99,,,-99.99,meteohub,2013-01-15 17:27:00,
2013-01-15 09:32:00,23.7,15.4,30.45,North,-999,-999.0,-999.0,70,-99.99,,,-99.99,meteohub,2013-01-15 17:32:00,
2013-01-15 09:37:00,24.3,15.6,30.45,North,-999,-999.0,-999.0,69,-99.99,,,-99.99,meteohub,2013-01-15 17:37:00,
2013-01-15 09:42:00,24.6,16.0,30.45,North,-999,-999.0,-999.0,69,-99.99,,,-99.99,meteohub,2013-01-15 17:42:00,
2013-01-15 09:47:00,25.5,16.2,30.45,North,-999,-999.0,-999.0,67,-99.99,,,-99.99,meteohub,2013-01-15 17:47:00,
2013-01-15 09:52:00,26.2,16.2,30.45,North,-999,-999.0,-999.0,65,-99.99,,,-99.99,meteohub,2013-01-15 17:52:00,
2013-01-15 09:58:00,27.0,15.3,30.45,North,-999,-999.0,-999.0,61,-99.99,,,-99.99,meteohub,2013-01-15 17:58:00,
2013-01-15 10:03:00,27.9,15.4,30.45,North,-999,-999.0,-999.0,59,-99.99,,,-99.99,meteohub,2013-01-15 18:03:00,
2013-01-15 10:08:00,28.6,15.3,30.45,North,-999,-999.0,-999.0,57,-99.99,,,-99.99,meteohub,2013-01-15 18:08:00,
2013-01-15 10:13:00,29.1,15.4,30.45,North,-999,-999.0,-999.0,56,-99.99,,,-99.99,meteohub,2013-01-15 18:13:00,
2013-01-15 10:18:00,29.8,15.3,30.45,North,-999,-999.0,-999.0,54,-99.99,,,-99.99,meteohub,2013-01-15 18:18:00,
2013-01-15 10:24:00,30.6,15.4,30.45,North,-999,-999.0,-999.0,53,-99.99,,,-99.99,meteohub,2013-01-15 18:24:00,
2013-01-15 10:29:00,31.1,15.6,30.45,North,-999,-999.0,-999.0,52,-99.99,,,-99.99,meteohub,2013-01-15 18:29:00,
2013-01-15 10:34:00,32.0,16.0,30.45,North,-999,-999.0,-999.0,51,-99.99,,,-99.99,meteohub,2013-01-15 18:34:00,
2013-01-15 10:39:00,32.5,16.0,30.45,North,-999,-999.0,-999.0,50,-99.99,,,-99.99,meteohub,2013-01-15 18:39:00,
2013-01-15 10:44:00,33.1,16.5,30.45,North,-999,-999.0,-999.0,50,-99.99,,,-99.99,meteohub,2013-01-15 18:44:00,
2013-01-15 10:49:00,33.6,17.1,30.45,North,-999,-999.0,-999.0,50,-99.99,,,-99.99,meteohub,2013-01-15 18:49:00,
2013-01-15 11:05:00,34.7,16.5,30.45,North,-999,-999.0,-999.0,47,-99.99,,,-99.99,meteohub,2013-01-15 19:05:00,
2013-01-15 11:11:00,35.1,16.3,30.45,North,-999,-999.0,-999.0,46,-99.99,,,-99.99,meteohub,2013-01-15 19:11:00,
2013-01-15 11:16:00,35.4,16.7,30.45,North,-999,-999.0,-999.0,46,-99.99,,,-99.99,meteohub,2013-01-15 19:16:00,
2013-01-15 11:21:00,35.8,16.5,30.45,North,-999,-999.0,-999.0,45,-99.99,,,-99.99,meteohub,2013-01-15 19:21:00,
2013-01-15 11:26:00,36.3,17.1,30.45,North,-999,-999.0,-999.0,45,-99.99,,,-99.99,meteohub,2013-01-15 19:26:00,
2013-01-15 11:35:00,37.2,17.4,30.42,North,-999,-999.0,-999.0,44,-99.99,,,-99.99,meteohub,2013-01-15 19:35:00,
2013-01-15 11:40:00,37.6,17.2,30.42,North,-999,-999.0,-999.0,43,-99.99,,,-99.99,meteohub,2013-01-15 19:40:00,
2013-01-15 11:45:00,38.1,18.1,30.42,North,-999,-999.0,-999.0,44,-99.99,,,-99.99,meteohub,2013-01-15 19:45:00,
2013-01-15 11:50:00,38.5,18.0,30.42,North,-999,-999.0,-999.0,43,-99.99,,,-99.99,meteohub,2013-01-15 19:50:00,
2013-01-15 11:55:00,38.8,18.3,30.42,North,-999,-999.0,-999.0,43,-99.99,,,-99.99,meteohub,2013-01-15 19:55:00,
2013-01-15 12:01:00,39.2,18.1,30.42,North,-999,-999.0,-999.0,42,-99.99,,,-99.99,meteohub,2013-01-15 20:01:00,
2013-01-15 12:06:00,39.7,18.5,30.42,North,-999,-999.0,-999.0,42,-99.99,,,-99.99,meteohub,2013-01-15 20:06:00,
2013-01-15 12:11:00,40.5,19.2,30.42,North,-999,-999.0,-999.0,42,-99.99,,,-99.99,meteohub,2013-01-15 20:11:00,
2013-01-15 12:16:00,40.8,19.6,30.42,North,-999,-999.0,-999.0,42,-99.99,,,-99.99,meteohub,2013-01-15 20:16:00,
2013-01-15 12:21:00,41.5,19.6,30.42,North,-999,-999.0,-999.0,41,-99.99,,,-99.99,meteohub,2013-01-15 20:21:00,
2013-01-15 12:26:00,42.1,20.1,30.42,North,-999,-999.0,-999.0,41,-99.99,,,-99.99,meteohub,2013-01-15 20:26:00,
2013-01-15 12:32:00,42.6,20.7,30.42,North,-999,-999.0,-999.0,41,-99.99,,,-99.99,meteohub,2013-01-15 20:32:00,
2013-01-15 12:37:00,43.3,20.7,30.42,North,-999,-999.0,-999.0,40,-99.99,,,-99.99,meteohub,2013-01-15 20:37:00,
2013-01-15 12:42:00,43.7,21.0,30.42,North,-999,-999.0,-999.0,40,-99.99,,,-99.99,meteohub,2013-01-15 20:42:00,
2013-01-15 12:47:00,44.2,21.6,30.42,North,-999,-999.0,-999.0,40,-99.99,,,-99.99,meteohub,2013-01-15 20:47:00,
2013-01-15 12:52:00,44.6,21.2,30.42,North,-999,-999.0,-999.0,39,-99.99,,,-99.99,meteohub,2013-01-15 20:52:00,
2013-01-15 12:57:00,44.8,21.4,30.42,North,-999,-999.0,-999.0,39,-99.99,,,-99.99,meteohub,2013-01-15 20:57:00,
2013-01-15 13:02:00,45.1,21.7,30.42,North,-999,-999.0,-999.0,39,-99.99,,,-99.99,meteohub,2013-01-15 21:02:00,
2013-01-15 13:07:00,45.3,21.9,30.42,North,-999,-999.0,-999.0,39,-99.99,,,-99.99,meteohub,2013-01-15 21:07:00,
2013-01-15 13:20:00,46.2,22.6,30.42,North,-999,-999.0,-999.0,39,-99.99,,,-99.99,meteohub,2013-01-15 21:20:00,
2013-01-15 13:25:00,46.8,22.5,30.42,North,-999,-999.0,-999.0,38,-99.99,,,-99.99,meteohub,2013-01-15 21:25:00,
2013-01-15 13:30:00,46.9,22.6,30.42,North,-999,-999.0,-999.0,38,-99.99,,,-99.99,meteohub,2013-01-15 21:30:00,
2013-01-15 13:36:00,47.1,22.8,30.42,North,-999,-999.0,-999.0,38,-99.99,,,-99.99,meteohub,2013-01-15 21:36:00,
2013-01-15 13:41:00,47.3,23.0,30.42,North,-999,-999.0,-999.0,38,-99.99,,,-99.99,meteohub,2013-01-15 21:41:00,
2013-01-15 13:46:00,47.8,23.5,30.42,North,-999,-999.0,-999.0,38,-99.99,,,-99.99,meteohub,2013-01-15 21:46:00,
2013-01-15 13:51:00,48.2,23.2,30.42,North,-999,-999.0,-999.0,37,-99.99,,,-99.99,meteohub,2013-01-15 21:51:00,
2013-01-15 13:56:00,48.7,23.7,30.42,North,-999,-999.0,-999.0,37,-99.99,,,-99.99,meteohub,2013-01-15 21:56:00,
2013-01-15 14:20:00,49.5,24.3,30.42,North,-999,-999.0,-999.0,37,-99.99,,,-99.99,meteohub,2013-01-15 22:20:00,
2013-01-15 14:25:00,49.6,24.4,30.42,North,-999,-999.0,-999.0,37,-99.99,,,-99.99,meteohub,2013-01-15 22:25:00,
2013-01-15 14:31:00,49.8,24.6,30.42,North,-999,-999.0,-999.0,37,-99.99,,,-99.99,meteohub,2013-01-15 22:31:00,
2013-01-15 14:36:00,50.0,24.1,30.42,North,-999,-999.0,-999.0,36,-99.99,,,-99.99,meteohub,2013-01-15 22:36:00,
2013-01-15 14:41:00,50.0,24.1,30.42,North,-999,-999.0,-999.0,36,-99.99,,,-99.99,meteohub,2013-01-15 22:41:00,
2013-01-15 14:46:00,50.0,24.1,30.42,North,-999,-999.0,-999.0,36,-99.99,,,-99.99,meteohub,2013-01-15 22:46:00,
2013-01-15 14:51:00,49.8,24.6,30.42,North,-999,-999.0,-999.0,37,-99.99,,,-99.99,meteohub,2013-01-15 22:51:00,
2013-01-15 14:56:00,50.0,24.1,30.42,North,-999,-999.0,-999.0,36,-99.99,,,-99.99,meteohub,2013-01-15 22:56:00,
2013-01-15 15:02:00,50.4,24.4,30.45,North,-999,-999.0,-999.0,36,-99.99,,,-99.99,meteohub,2013-01-15 23:02:00,
2013-01-15 15:07:00,50.5,24.6,30.45,North,-999,-999.0,-999.0,36,-99.99,,,-99.99,meteohub,2013-01-15 23:07:00,
2013-01-15 15:12:00,50.7,24.8,30.45,North,-999,-999.0,-999.0,36,-99.99,,,-99.99,meteohub,2013-01-15 23:12:00,
2013-01-15 15:17:00,50.7,24.8,30.42,North,-999,-999.0,-999.0,36,-99.99,,,-99.99,meteohub,2013-01-15 23:17:00,
2013-01-15 15:22:00,50.5,24.6,30.42,North,-999,-999.0,-999.0,36,-99.99,,,-99.99,meteohub,2013-01-15 23:22:00,
2013-01-15 15:27:00,50.2,24.3,30.42,North,-999,-999.0,-999.0,36,-99.99,,,-99.99,meteohub,2013-01-15 23:27:00,
2013-01-15 15:32:00,50.2,24.3,30.45,North,-999,-999.0,-999.0,36,-99.99,,,-99.99,meteohub,2013-01-15 23:32:00,
2013-01-15 15:37:00,49.8,24.6,30.45,North,-999,-999.0,-999.0,37,-99.99,,,-99.99,meteohub,2013-01-15 23:37:00,
2013-01-15 15:42:00,49.5,24.3,30.45,North,-999,-999.0,-999.0,37,-99.99,,,-99.99,meteohub,2013-01-15 23:42:00,
2013-01-15 15:51:00,48.7,23.7,30.45,North,-999,-999.0,-999.0,37,-99.99,,,-99.99,meteohub,2013-01-15 23:51:00,
2013-01-15 15:56:00,48.2,23.2,30.45,North,-999,-999.0,-999.0,37,-99.99,,,-99.99,meteohub,2013-01-15 23:56:00,
2013-01-15 16:01:00,47.7,23.4,30.45,North,-999,-999.0,-999.0,38,-99.99,,,-99.99,meteohub,2013-01-16 00:01:00,
2013-01-15 16:07:00,47.3,23.0,30.45,North,-999,-999.0,-999.0,38,-99.99,,,-99.99,meteohub,2013-01-16 00:07:00,
2013-01-15 16:12:00,46.9,22.6,30.45,North,-999,-999.0,-999.0,38,-99.99,,,-99.99,meteohub,2013-01-16 00:12:00,
2013-01-15 16:17:00,46.4,22.3,30.45,North,-999,-999.0,-999.0,38,-99.99,,,-99.99,meteohub,2013-01-16 00:17:00,
2013-01-15 16:22:00,46.0,22.5,30.45,North,-999,-999.0,-999.0,39,-99.99,,,-99.99,meteohub,2013-01-16 00:22:00,
2013-01-15 16:27:00,45.7,22.3,30.45,North,-999,-999.0,-999.0,39,-99.99,,,-99.99,meteohub,2013-01-16 00:27:00,
2013-01-15 16:32:00,45.3,21.9,30.45,North,-999,-999.0,-999.0,39,-99.99,,,-99.99,meteohub,2013-01-16 00:32:00,
2013-01-15 16:37:00,44.6,21.2,30.45,North,-999,-999.0,-999.0,39,-99.99,,,-99.99,meteohub,2013-01-16 00:37:00,
2013-01-15 16:42:00,44.1,21.4,30.45,North,-999,-999.0,-999.0,40,-99.99,,,-99.99,meteohub,2013-01-16 00:42:00,
2013-01-15 16:47:00,43.3,20.7,30.45,North,-999,-999.0,-999.0,40,-99.99,,,-99.99,meteohub,2013-01-16 00:47:00,
2013-01-15 16:52:00,42.1,20.1,30.45,North,-999,-999.0,-999.0,41,-99.99,,,-99.99,meteohub,2013-01-16 00:52:00,
2013-01-15 16:57:00,41.4,19.4,30.45,North,-999,-999.0,-999.0,41,-99.99,,,-99.99,meteohub,2013-01-16 00:57:00,
2013-01-15 17:02:00,40.6,19.4,30.45,North,-999,-999.0,-999.0,42,-99.99,,,-99.99,meteohub,2013-01-16 01:02:00,
2013-01-15 17:07:00,39.9,19.2,30.45,North,-999,-999.0,-999.0,43,-99.99,,,-99.99,meteohub,2013-01-16 01:07:00,
2013-01-15 17:12:00,39.2,19.2,30.45,North,-999,-999.0,-999.0,44,-99.99,,,-99.99,meteohub,2013-01-16 01:12:00,
2013-01-15 17:17:00,38.7,19.8,30.45,North,-999,-999.0,-999.0,46,-99.99,,,-99.99,meteohub,2013-01-16 01:17:00,
2013-01-15 17:22:00,38.1,19.8,30.45,North,-999,-999.0,-999.0,47,-99.99,,,-99.99,meteohub,2013-01-16 01:22:00,
2013-01-15 17:27:00,37.4,19.6,30.45,North,-999,-999.0,-999.0,48,-99.99,,,-99.99,meteohub,2013-01-16 01:27:00,
2013-01-15 17:32:00,36.9,19.6,30.45,North,-999,-999.0,-999.0,49,-99.99,,,-99.99,meteohub,2013-01-16 01:32:00,
2013-01-15 17:37:00,36.1,19.4,30.45,North,-999,-999.0,-999.0,50,-99.99,,,-99.99,meteohub,2013-01-16 01:37:00,
2013-01-15 17:42:00,35.6,18.9,30.45,North,-999,-999.0,-999.0,50,-99.99,,,-99.99,meteohub,2013-01-16 01:42:00,
2013-01-15 17:49:00,35.1,19.2,30.45,North,-999,-999.0,-999.0,52,-99.99,,,-99.99,meteohub,2013-01-16 01:49:00,
2013-01-15 17:54:00,34.9,19.0,30.45,North,-999,-999.0,-999.0,52,-99.99,,,-99.99,meteohub,2013-01-16 01:54:00,
2013-01-15 18:00:00,34.5,19.2,30.45,North,-999,-999.0,-999.0,53,-99.99,,,-99.99,meteohub,2013-01-16 02:00:00,
2013-01-15 18:06:00,34.2,18.9,30.45,North,-999,-999.0,-999.0,53,-99.99,,,-99.99,meteohub,2013-01-16 02:06:00,
2013-01-15 18:11:00,33.6,19.2,30.45,North,-999,-999.0,-999.0,55,-99.99,,,-99.99,meteohub,2013-01-16 02:11:00,
2013-01-15 18:16:00,33.4,19.4,30.45,North,-999,-999.0,-999.0,56,-99.99,,,-99.99,meteohub,2013-01-16 02:16:00,
2013-01-15 18:22:00,33.1,19.6,30.45,North,-999,-999.0,-999.0,57,-99.99,,,-99.99,meteohub,2013-01-16 02:22:00,
2013-01-15 18:27:00,32.9,19.4,30.45,North,-999,-999.0,-999.0,57,-99.99,,,-99.99,meteohub,2013-01-16 02:27:00,
2013-01-15 18:32:00,32.5,19.4,30.45,North,-999,-999.0,-999.0,58,-99.99,,,-99.99,meteohub,2013-01-16 02:32:00,
2013-01-15 18:37:00,32.2,19.0,30.45,North,-999,-999.0,-999.0,58,-99.99,,,-99.99,meteohub,2013-01-16 02:37:00,
2013-01-15 18:42:00,32.0,19.4,30.45,North,-999,-999.0,-999.0,59,-99.99,,,-99.99,meteohub,2013-01-16 02:42:00,
2013-01-15 18:47:00,31.8,19.6,30.45,North,-999,-999.0,-999.0,60,-99.99,,,-99.99,meteohub,2013-01-16 02:47:00,
2013-01-15 18:52:00,31.6,19.8,30.45,North,-999,-999.0,-999.0,61,-99.99,,,-99.99,meteohub,2013-01-16 02:52:00,
2013-01-15 18:57:00,31.5,19.9,30.45,North,-999,-999.0,-999.0,62,-99.99,,,-99.99,meteohub,2013-01-16 02:57:00,
2013-01-15 19:02:00,31.3,19.8,30.45,North,-999,-999.0,-999.0,62,-99.99,,,-99.99,meteohub,2013-01-16 03:02:00,
2013-01-15 19:07:00,31.1,19.9,30.45,North,-999,-999.0,-999.0,63,-99.99,,,-99.99,meteohub,2013-01-16 03:07:00,
2013-01-15 19:21:00,31.1,19.6,30.45,North,-999,-999.0,-999.0,62,-99.99,,,-99.99,meteohub,2013-01-16 03:21:00,
2013-01-15 19:36:00,32.2,19.0,30.45,North,-999,-999.0,-999.0,58,-99.99,,,-99.99,meteohub,2013-01-16 03:36:00,
2013-01-15 19:41:00,32.5,19.0,30.45,North,-999,-999.0,-999.0,57,-99.99,,,-99.99,meteohub,2013-01-16 03:41:00,
2013-01-15 19:46:00,32.7,18.9,30.45,North,-999,-999.0,-999.0,56,-99.99,,,-99.99,meteohub,2013-01-16 03:46:00,
2013-01-15 19:51:00,32.7,18.0,30.45,North,-999,-999.0,-999.0,54,-99.99,,,-99.99,meteohub,2013-01-16 03:51:00,
2013-01-15 19:56:00,32.9,18.1,30.45,North,-999,-999.0,-999.0,54,-99.99,,,-99.99,meteohub,2013-01-16 03:56:00,
2013-01-15 20:01:00,33.3,18.0,30.45,North,-999,-999.0,-999.0,53,-99.99,,,-99.99,meteohub,2013-01-16 04:01:00,
2013-01-15 20:07:00,33.3,17.6,30.45,North,-999,-999.0,-999.0,52,-99.99,,,-99.99,meteohub,2013-01-16 04:07:00,
2013-01-15 20:12:00,33.3,17.6,30.45,North,-999,-999.0,-999.0,52,-99.99,,,-99.99,meteohub,2013-01-16 04:12:00,
2013-01-15 20:21:00,34.3,17.6,30.42,North,-999,-999.0,-999.0,50,-99.99,,,-99.99,meteohub,2013-01-16 04:21:00,
2013-01-15 20:26:00,34.5,16.9,30.42,North,-999,-999.0,-999.0,48,-99.99,,,-99.99,meteohub,2013-01-16 04:26:00,
2013-01-15 20:31:00,34.7,17.1,30.42,North,-999,-999.0,-999.0,48,-99.99,,,-99.99,meteohub,2013-01-16 04:31:00,
2013-01-15 20:37:00,34.5,17.4,30.42,North,-999,-999.0,-999.0,49,-99.99,,,-99.99,meteohub,2013-01-16 04:37:00,
2013-01-15 20:42:00,34.3,16.7,30.42,North,-999,-999.0,-999.0,48,-99.99,,,-99.99,meteohub,2013-01-16 04:42:00,
2013-01-15 20:47:00,34.3,16.7,30.45,North,-999,-999.0,-999.0,48,-99.99,,,-99.99,meteohub,2013-01-16 04:47:00,
2013-01-15 20:52:00,34.5,16.9,30.45,North,-999,-999.0,-999.0,48,-99.99,,,-99.99,meteohub,2013-01-16 04:52:00,
2013-01-15 20:57:00,34.5,16.3,30.45,North,-999,-999.0,-999.0,47,-99.99,,,-99.99,meteohub,2013-01-16 04:57:00,
2013-01-15 21:00:00,34.5,16.3,30.45,North,-999,-999.0,-999.0,47,-99.99,,,-99.99,meteohub,2013-01-16 05:00:00,
2013-01-15 21:01:00,34.5,16.3,30.45,North,-999,-999.0,-999.0,47,-99.99,,,-99.99,meteohub,2013-01-16 05:01:00,
2013-01-15 21:02:00,34.5,16.3,30.45,North,-999,-999.0,-999.0,47,-99.99,,,-99.99,meteohub,2013-01-16 05:02:00,
2013-01-15 21:06:00,34.3,16.3,30.45,North,-999,-999.0,-999.0,47,-99.99,,,-99.99,meteohub,2013-01-16 05:06:00,
2013-01-15 21:21:00,33.8,15.8,30.45,North,-999,-999.0,-999.0,47,-99.99,,,-99.99,meteohub,2013-01-16 05:21:00,
2013-01-15 21:36:00,32.7,15.8,30.42,North,-999,-999.0,-999.0,49,-99.99,,,-99.99,meteohub,2013-01-16 05:36:00,
2013-01-15 21:42:00,32.7,15.8,30.42,North,-999,-999.0,-999.0,49,-99.99,,,-99.99,meteohub,2013-01-16 05:42:00,
2013-01-15 21:47:00,33.1,15.6,30.45,North,-999,-999.0,-999.0,48,-99.99,,,-99.99,meteohub,2013-01-16 05:47:00,
2013-01-15 21:52:00,33.6,16.2,30.45,North,-999,-999.0,-999.0,48,-99.99,,,-99.99,meteohub,2013-01-16 05:52:00,
2013-01-15 21:57:00,33.8,16.2,30.45,North,-999,-999.0,-999.0,48,-99.99,,,-99.99,meteohub,2013-01-16 05:57:00,
2013-01-15 22:02:00,33.8,16.2,30.42,North,-999,-999.0,-999.0,48,-99.99,,,-99.99,meteohub,2013-01-16 06:02:00,
2013-01-15 22:07:00,33.6,16.5,30.42,North,-999,-999.0,-999.0,49,-99.99,,,-99.99,meteohub,2013-01-16 06:07:00,
2013-01-15 22:12:00,33.6,16.2,30.42,North,-999,-999.0,-999.0,48,-99.99,,,-99.99,meteohub,2013-01-16 06:12:00,
2013-01-15 22:17:00,34.5,16.3,30.42,North,-999,-999.0,-999.0,47,-99.99,,,-99.99,meteohub,2013-01-16 06:17:00,
2013-01-15 22:22:00,34.5,16.3,30.42,North,-999,-999.0,-999.0,47,-99.99,,,-99.99,meteohub,2013-01-16 06:22:00,
2013-01-15 22:27:00,34.7,16.5,30.42,North,-999,-999.0,-999.0,47,-99.99,,,-99.99,meteohub,2013-01-16 06:27:00,
2013-01-15 22:32:00,34.5,16.3,30.45,North,-999,-999.0,-999.0,47,-99.99,,,-99.99,meteohub,2013-01-16 06:32:00,
2013-01-15 22:37:00,34.2,16.2,30.45,North,-999,-999.0,-999.0,47,-99.99,,,-99.99,meteohub,2013-01-16 06:37:00,
2013-01-15 22:42:00,34.2,16.2,30.45,North,-999,-999.0,-999.0,47,-99.99,,,-99.99,meteohub,2013-01-16 06:42:00,
2013-01-15 22:47:00,34.3,16.3,30.45,North,-999,-999.0,-999.0,47,-99.99,,,-99.99,meteohub,2013-01-16 06:47:00,
2013-01-15 22:52:00,34.2,16.2,30.45,North,-999,-999.0,-999.0,47,-99.99,,,-99.99,meteohub,2013-01-16 06:52:00,
2013-01-15 22:57:00,34.2,16.5,30.45,North,-999,-999.0,-999.0,48,-99.99,,,-99.99,meteohub,2013-01-16 06:57:00,
2013-01-15 23:02:00,34.2,16.5,30.45,North,-999,-999.0,-999.0,48,-99.99,,,-99.99,meteohub,2013-01-16 07:02:00,
2013-01-15 23:07:00,34.0,16.3,30.45,North,-999,-999.0,-999.0,48,-99.99,,,-99.99,meteohub,2013-01-16 07:07:00,
2013-01-15 23:12:00,34.3,16.7,30.45,North,-999,-999.0,-999.0,48,-99.99,,,-99.99,meteohub,2013-01-16 07:12:00,
2013-01-15 23:17:00,34.3,16.7,30.45,North,-999,-999.0,-999.0,48,-99.99,,,-99.99,meteohub,2013-01-16 07:17:00,
2013-01-15 23:22:00,34.3,16.7,30.45,North,-999,-999.0,-999.0,48,-99.99,,,-99.99,meteohub,2013-01-16 07:22:00,
2013-01-15 23:27:00,34.3,16.7,30.45,North,-999,-999.0,-999.0,48,-99.99,,,-99.99,meteohub,2013-01-16 07:27:00,
2013-01-15 23:32:00,34.2,16.5,30.45,North,-999,-999.0,-999.0,48,-99.99,,,-99.99,meteohub,2013-01-16 07:32:00,
2013-01-15 23:37:00,34.0,16.9,30.45,North,-999,-999.0,-999.0,49,-99.99,,,-99.99,meteohub,2013-01-16 07:37:00,
2013-01-15 23:42:00,33.8,16.7,30.45,North,-999,-999.0,-999.0,49,-99.99,,,-99.99,meteohub,2013-01-16 07:42:00,
2013-01-15 23:47:00,33.4,16.9,30.45,North,-999,-999.0,-999.0,50,-99.99,,,-99.99,meteohub,2013-01-16 07:47:00,
2013-01-15 23:52:00,33.3,16.7,30.45,North,-999,-999.0,-999.0,50,-99.99,,,-99.99,meteohub,2013-01-16 07:52:00,
2013-01-15 23:57:00,32.9,16.3,30.45,North,-999,-999.0,-999.0,50,-99.99,,,-99.99,meteohub,2013-01-16 07:57:00,